DW6650 Weather Reports


time (UTC)temp
F
wind
direction
speed
knots
gust
knots
rain 1hr
in
rain 24hr
in
rain mn
in
humidity
%
barometer
mb
20260506132517 69 225 0.0 1.7 0.00 0.00 0.00 82 1016.5
20260506132017 69 248 0.0 1.7 0.00 0.00 0.00 83 1016.5
20260506131537 69 180 0.0 0.9 0.00 0.00 0.00 83 1016.4
20260506131017 68 180 0.0 0.9 0.00 0.00 0.00 83 1016.4
20260506130517 68 180 0.0 0.9 0.00 0.00 0.00 84 1016.3
20260506130017 68 180 0.0 0.9 0.00 0.00 0.00 84 1016.3
20260506125517 67 135 0.0 1.7 0.00 0.00 0.00 84 1016.3
20260506125017 67 135 0.0 0.9 0.00 0.00 0.00 84 1016.2
20260506124517 67 135 0.0 0.9 0.00 0.00 0.00 85 1016.2
20260506124017 67 295 0.0 0.0 0.00 0.00 0.00 84 1016.2
20260506123537 67 295 0.0 0.0 0.00 0.00 0.00 85 1016.0
20260506123017 66 295 0.0 0.0 0.00 0.00 0.00 85 1016.2
20260506122537 66 295 0.0 0.0 0.00 0.00 0.00 85 1016.2
20260506122017 66 295 0.0 0.0 0.00 0.00 0.00 85 1016.1
20260506121517 66 295 0.0 0.0 0.00 0.00 0.00 85 1015.9
20260506121016 66 295 0.0 0.0 0.00 0.00 0.00 85 1015.9
20260506120517 66 295 0.0 0.0 0.00 0.00 0.00 85 1015.9
20260506120017 65 295 0.0 0.0 0.00 0.00 0.00 85 1016.0
20260506115517 65 295 0.0 0.0 0.00 0.00 0.00 85 1016.0
20260506115017 65 295 0.0 0.0 0.00 0.00 0.00 85 1015.9
20260506114537 65 295 0.0 0.0 0.00 0.00 0.00 85 1015.9
20260506114057 65 295 0.0 0.0 0.00 0.00 0.00 85 1015.6
20260506113538 65 295 0.0 0.0 0.00 0.00 0.00 85 1015.6
20260506113017 65 295 0.0 0.0 0.00 0.00 0.00 85 1015.6
20260506112517 65 295 0.0 0.0 0.00 0.00 0.00 85 1015.5
20260506112017 65 295 0.0 0.0 0.00 0.00 0.00 85 1015.3
20260506111557 64 295 0.0 0.0 0.00 0.00 0.00 85 1015.1
20260506111037 64 293 0.0 0.9 0.00 0.00 0.00 86 1015.1
20260506110537 64 68 0.0 0.9 0.00 0.00 0.00 85 1015.0
20260506110017 64 61 0.0 0.0 0.00 0.00 0.00 84 1015.0
20260506105517 64 61 0.0 0.0 0.00 0.00 0.00 84 1015.1
20260506105017 64 61 0.0 0.0 0.00 0.00 0.00 84 1015.1
20260506104516 64 61 0.0 0.0 0.00 0.00 0.00 84 1014.8
20260506104017 64 61 0.0 0.0 0.00 0.00 0.00 84 1014.9
20260506103516 64 61 0.0 0.0 0.00 0.00 0.00 84 1014.8
20260506103037 64 68 0.0 0.9 0.00 0.00 0.00 84 1014.8
20260506102517 64 68 0.0 0.9 0.00 0.00 0.00 83 1014.7
20260506102016 64 68 0.0 0.9 0.00 0.00 0.00 83 1014.7
20260506101517 64 61 0.0 0.0 0.00 0.00 0.00 82 1014.7
20260506101017 64 61 0.0 0.0 0.00 0.00 0.00 82 1014.7
20260506100516 64 68 0.0 0.9 0.00 0.00 0.00 82 1014.7
20260506100016 64 61 0.0 0.0 0.00 0.00 0.00 82 1014.7
20260506095516 64 68 0.0 0.9 0.00 0.00 0.00 82 1014.6
20260506095016 64 61 0.0 0.0 0.00 0.00 0.00 81 1014.7
20260506094536 64 68 0.0 0.9 0.00 0.00 0.00 81 1014.7
20260506094036 64 68 0.0 0.9 0.00 0.00 0.00 80 1014.7
20260506093517 64 61 0.0 0.0 0.00 0.00 0.00 80 1014.7
20260506093036 65 68 0.0 1.7 0.00 0.00 0.00 80 1014.8
20260506092516 65 71 0.0 0.0 0.00 0.00 0.00 80 1014.6
20260506092016 65 68 0.0 1.7 0.00 0.00 0.00 80 1014.7
20260506091516 65 71 0.0 0.0 0.00 0.00 0.00 80 1014.6
20260506091037 65 68 0.0 1.7 0.00 0.00 0.00 80 1014.5
20260506090516 65 90 0.0 0.9 0.00 0.00 0.00 79 1014.6
20260506090016 65 90 0.0 1.7 0.00 0.00 0.00 79 1014.7
20260506085516 65 113 0.0 0.9 0.00 0.00 0.00 79 1014.6
20260506085016 65 108 0.0 0.0 0.00 0.00 0.00 79 1014.9
20260506084516 65 108 0.0 0.0 0.00 0.00 0.00 79 1014.9
20260506084016 65 113 0.0 0.9 0.00 0.00 0.00 79 1015.0
20260506083516 65 108 0.0 0.0 0.00 0.00 0.00 79 1015.1
20260506083016 65 113 0.0 0.9 0.00 0.00 0.00 79 1015.2
20260506082516 65 108 0.0 0.0 0.00 0.00 0.00 79 1015.2
20260506082036 65 108 0.0 0.0 0.00 0.00 0.00 79 1015.2
20260506081516 65 113 0.0 1.7 0.00 0.00 0.00 79 1015.2
20260506081016 65 113 0.0 0.9 0.00 0.00 0.00 78 1015.2
20260506080516 65 123 0.0 0.0 0.00 0.00 0.00 79 1015.2
20260506073516 65 123 0.0 0.0 0.00 0.00 0.00 76 1015.1
20260506073016 65 123 0.0 0.0 0.00 0.00 0.00 76 1015.2
20260506072516 65 123 0.0 0.0 0.00 0.00 0.00 75 1015.1
20260506072016 65 123 0.0 0.0 0.00 0.00 0.00 75 1015.1
20260506071516 66 123 0.0 0.0 0.00 0.00 0.00 74 1015.2
20260506071016 66 123 0.0 0.0 0.00 0.00 0.00 74 1015.1
20260506070516 66 123 0.0 0.0 0.00 0.00 0.00 73 1015.2
20260506062516 67 66 0.0 0.0 0.00 0.00 0.00 70 1014.8
20260506062016 67 68 0.0 0.9 0.00 0.00 0.00 69 1014.8
20260506061516 67 68 0.0 0.9 0.00 0.00 0.00 69 1014.9
20260506061016 67 68 0.0 0.9 0.00 0.00 0.00 67 1014.8
20260506060516 67 68 0.0 0.9 0.00 0.00 0.00 66 1014.8
20260506051015 67 0 0.0 0.9 0.00 0.00 0.00 61 1015.1
20260506050516 67 23 0.0 1.7 0.00 0.00 0.00 61 1015.0
20260506045017 67 0 0.0 1.7 0.00 0.00 0.00 62 1014.8
20260506044517 67 0 0.0 0.9 0.00 0.00 0.00 63 1015.0
20260506044017 67 5 0.0 0.0 0.00 0.00 0.00 63 1015.1
20260506043518 67 5 0.0 0.0 0.00 0.00 0.00 62 1015.2
20260506043037 67 5 0.0 0.0 0.00 0.00 0.00 61 1015.3
20260506042537 67 0 0.0 0.9 0.00 0.00 0.00 62 1015.2
20260506042016 67 0 0.0 0.9 0.00 0.00 0.00 62 1015.1
20260506041517 67 0 0.0 0.9 0.00 0.00 0.00 61 1015.2
20260506041016 67 0 0.0 0.9 0.00 0.00 0.00 62 1015.3
20260506040517 68 5 0.0 0.0 0.00 0.00 0.00 60 1015.3
20260506040016 68 0 0.0 0.9 0.00 0.00 0.00 60 1015.2
20260506035517 68 0 0.0 0.9 0.00 0.00 0.00 58 1015.0
20260506035017 68 5 0.0 0.0 0.00 0.00 0.00 58 1015.3
20260506034537 68 0 0.0 1.7 0.00 0.00 0.00 58 1015.1
20260506034017 68 0 0.0 0.9 0.00 0.00 0.00 57 1014.9
20260506033537 68 0 0.0 0.9 0.00 0.00 0.00 58 1015.1
20260506033017 69 0 0.0 0.9 0.00 0.00 0.00 57 1015.0
20260506032517 69 0 0.0 0.9 0.00 0.00 0.00 56 1015.1
20260506032017 69 293 0.0 0.0 0.00 0.00 0.00 56 1015.1
20260506031517 69 293 0.0 0.0 0.00 0.00 0.00 55 1015.1
20260506031017 69 293 0.0 0.0 0.00 0.00 0.00 53 1015.1
20260506030542 69 293 0.0 0.0 0.00 0.00 0.00 53 1015.2
20260506030017 69 293 0.0 0.9 0.00 0.00 0.00 54 1015.3
20260506025537 69 272 0.0 0.0 0.00 0.00 0.00 53 1015.5
20260506025016 70 272 0.0 0.0 0.00 0.00 0.00 52 1015.5
20260506024517 70 270 0.0 0.9 0.00 0.00 0.00 52 1015.5
20260506024017 70 272 0.0 0.0 0.00 0.00 0.00 51 1015.5
20260506023517 70 270 0.0 0.9 0.00 0.00 0.00 50 1015.4
20260506023016 70 272 0.0 0.0 0.00 0.00 0.00 51 1015.3
20260506022518 70 270 0.0 0.9 0.00 0.00 0.00 52 1015.2
20260506022017 70 272 0.0 0.0 0.00 0.00 0.00 51 1015.3
20260506021536 71 272 0.0 0.0 0.00 0.00 0.00 49 1015.3
20260506021019 71 272 0.0 0.0 0.00 0.00 0.00 48 1015.3
20260506020537 71 272 0.0 0.0 0.00 0.00 0.00 48 1015.2
20260506020017 71 272 0.0 0.0 0.00 0.00 0.00 47 1015.1
20260506015557 71 272 0.0 0.0 0.00 0.00 0.00 47 1015.1
20260506015017 71 272 0.0 0.0 0.00 0.00 0.00 47 1015.1
20260506014537 72 270 0.0 0.9 0.00 0.00 0.00 46 1015.0
20260506014016 72 272 0.0 0.0 0.00 0.00 0.00 45 1015.0
20260506013516 72 272 0.0 0.0 0.00 0.00 0.00 45 1014.9
20260506013017 72 272 0.0 0.0 0.00 0.00 0.00 45 1014.9
20260506012516 72 272 0.0 0.0 0.00 0.00 0.00 47 1014.8
20260506012016 73 272 0.0 0.0 0.00 0.00 0.00 44 1014.9
20260506011516 73 272 0.0 0.0 0.00 0.00 0.00 46 1014.8
20260506011017 74 272 0.0 0.0 0.00 0.00 0.00 43 1015.0
20260506010601 74 272 0.0 0.0 0.00 0.00 0.00 43 1014.9
20260506010016 74 272 0.0 0.0 0.00 0.00 0.00 44 1014.9
20260506005516 75 272 0.0 0.0 0.00 0.00 0.00 43 1014.9
20260506005016 75 272 0.0 0.0 0.00 0.00 0.00 42 1014.8
20260506004519 76 272 0.0 0.0 0.00 0.00 0.00 42 1014.7
20260506004036 77 272 0.0 0.0 0.00 0.00 0.00 43 1014.7
20260506003516 77 270 0.0 0.9 0.00 0.00 0.00 42 1014.7
20260506003016 77 270 0.0 0.9 0.00 0.00 0.00 42 1014.7
20260506002516 78 248 0.0 1.7 0.00 0.00 0.00 40 1014.6
20260506002016 78 248 0.0 0.9 0.00 0.00 0.00 40 1014.6
20260506001516 79 248 0.0 1.7 0.00 0.00 0.00 40 1014.6
20260506001036 80 248 0.0 0.9 0.00 0.00 0.00 39 1014.6
20260506000516 80 248 0.0 1.7 0.00 0.00 0.00 39 1014.6
20260506000017 81 248 0.9 2.6 0.00 0.00 0.00 39 1014.5
20260505235516 81 225 0.0 1.7 0.00 0.00 0.00 39 1014.4
20260505235036 82 225 0.9 2.6 0.00 0.00 0.00 40 1014.3
20260505234537 82 203 0.0 1.7 0.00 0.00 0.00 39 1014.2
20260505234016 82 203 0.0 0.9 0.00 0.00 0.00 40 1014.3
20260505233516 82 270 0.9 2.6 0.00 0.00 0.00 40 1014.1
20260505233038 82 203 0.0 1.7 0.00 0.00 0.00 40 1014.0
20260505232516 83 203 0.0 1.7 0.00 0.00 0.00 39 1014.0
20260505232016 83 203 0.9 2.6 0.00 0.00 0.00 38 1014.0
20260505231516 83 203 0.0 1.7 0.00 0.00 0.00 38 1014.0
20260505231016 83 248 0.0 1.7 0.00 0.00 0.00 38 1014.0
20260505230516 83 203 0.0 2.6 0.00 0.00 0.00 38 1014.0
20260505230016 83 203 0.9 1.7 0.00 0.00 0.00 37 1014.0
20260505225537 83 180 0.9 1.7 0.00 0.00 0.00 37 1014.0
20260505225016 84 203 0.9 2.6 0.00 0.00 0.00 38 1014.0
20260505224516 84 180 0.0 1.7 0.00 0.00 0.00 38 1013.9
20260505224016 84 203 0.9 1.7 0.00 0.00 0.00 38 1013.9
20260505223516 84 203 0.9 1.7 0.00 0.00 0.00 38 1013.9
20260505223016 84 180 0.9 1.7 0.00 0.00 0.00 37 1014.0
20260505222516 84 45 0.0 1.7 0.00 0.00 0.00 40 1014.0
20260505222036 84 203 0.9 2.6 0.00 0.00 0.00 38 1013.9
20260505221516 84 203 0.0 1.7 0.00 0.00 0.00 38 1014.0
20260505221018 84 180 0.0 0.9 0.00 0.00 0.00 40 1013.9
20260505220556 84 203 0.0 1.7 0.00 0.00 0.00 40 1014.0
20260505220016 84 248 0.9 2.6 0.00 0.00 0.00 40 1014.0
20260505215516 84 225 0.9 2.6 0.00 0.00 0.00 37 1014.0
20260505215016 84 203 0.9 2.6 0.00 0.00 0.00 38 1014.2
20260505214516 84 203 0.9 6.1 0.00 0.00 0.00 38 1014.1
20260505214016 84 203 0.9 2.6 0.00 0.00 0.00 40 1014.2
20260505213516 84 203 0.9 4.3 0.00 0.00 0.00 38 1014.4
20260505213016 84 203 0.9 2.6 0.00 0.00 0.00 39 1014.4
20260505212516 84 203 0.9 2.6 0.00 0.00 0.00 39 1014.4
20260505212016 84 225 0.9 2.6 0.00 0.00 0.00 39 1014.4
20260505211516 84 135 0.9 2.6 0.00 0.00 0.00 41 1014.5
20260505211016 84 113 0.9 6.1 0.00 0.00 0.00 38 1014.4
20260505210516 84 203 0.0 2.6 0.00 0.00 0.00 38 1014.5
20260505210015 83 225 0.9 3.5 0.00 0.00 0.00 39 1014.5
20260505205516 83 203 0.9 3.5 0.00 0.00 0.00 37 1014.5
20260505205016 83 203 0.9 3.5 0.00 0.00 0.00 38 1014.4
20260505204516 83 248 0.9 3.5 0.00 0.00 0.00 40 1014.5
20260505204016 83 90 0.9 7.8 0.00 0.00 0.00 38 1014.3
20260505203515 83 113 0.9 4.3 0.00 0.00 0.00 39 1014.5
20260505203016 83 203 1.7 9.6 0.00 0.00 0.00 38 1014.6
20260505202516 83 113 0.9 4.3 0.00 0.00 0.00 40 1014.7
20260505202018 83 248 0.0 1.7 0.00 0.00 0.00 39 1014.8
20260505201515 83 158 0.9 2.6 0.00 0.00 0.00 38 1014.8
20260505201016 83 113 0.0 1.7 0.00 0.00 0.00 41 1014.8
20260505200515 82 225 0.9 1.7 0.00 0.00 0.00 41 1014.9
20260505200018 82 248 0.9 6.1 0.00 0.00 0.00 41 1014.9
20260505195538 82 203 0.9 3.5 0.00 0.00 0.00 40 1015.0
20260505195018 82 225 0.9 6.1 0.00 0.00 0.00 42 1014.9
20260505194536 82 203 0.9 2.6 0.00 0.00 0.00 41 1015.1
20260505194017 81 68 0.9 5.2 0.00 0.00 0.00 43 1015.2
20260505193517 81 135 0.9 2.6 0.00 0.00 0.00 43 1015.4
20260505193017 81 90 1.7 12.2 0.00 0.00 0.00 41 1015.3
20260505192518 81 203 0.9 1.7 0.00 0.00 0.00 39 1015.4
20260505192058 81 225 0.0 1.7 0.00 0.00 0.00 40 1015.4
20260505191537 81 225 0.9 1.7 0.00 0.00 0.00 39 1015.6
20260505191038 81 113 0.9 4.3 0.00 0.00 0.00 41 1015.8
20260505190517 81 203 0.9 2.6 0.00 0.00 0.00 43 1015.8
20260505190037 81 203 0.9 4.3 0.00 0.00 0.00 42 1015.8
20260505185517 81 203 0.9 2.6 0.00 0.00 0.00 42 1015.9
20260505185038 81 180 0.9 2.6 0.00 0.00 0.00 42 1015.9
20260505184517 81 225 0.9 2.6 0.00 0.00 0.00 44 1016.1
20260505184057 81 225 0.9 2.6 0.00 0.00 0.00 44 1016.3
20260505183517 81 203 0.9 7.0 0.00 0.00 0.00 43 1016.4
20260505183019 80 225 0.9 1.7 0.00 0.00 0.00 44 1016.4
20260505182518 80 203 0.9 2.6 0.00 0.00 0.00 44 1016.5
20260505182017 80 225 1.7 5.2 0.00 0.00 0.00 47 1016.5
20260505181537 80 113 1.7 7.0 0.00 0.00 0.00 46 1016.4
20260505181017 80 113 0.0 2.6 0.00 0.00 0.00 46 1016.6
20260505180517 79 113 0.0 1.7 0.00 0.00 0.00 47 1016.6
20260505180017 79 225 0.9 4.3 0.00 0.00 0.00 48 1016.6
20260505175517 79 113 0.9 2.6 0.00 0.00 0.00 48 1016.7
20260505175102 78 203 0.9 2.6 0.00 0.00 0.00 46 1016.8
20260505174518 78 180 0.0 1.7 0.00 0.00 0.00 49 1016.9
20260505174037 78 90 0.9 4.3 0.00 0.00 0.00 49 1016.8
20260505173517 78 203 0.9 2.6 0.00 0.00 0.00 49 1016.8
20260505173017 78 203 1.7 2.6 0.00 0.00 0.00 50 1016.9
20260505172537 78 203 0.9 4.3 0.00 0.00 0.00 49 1016.8
20260505172038 78 225 0.9 2.6 0.00 0.00 0.00 47 1016.9
20260505171518 79 180 0.9 6.1 0.00 0.00 0.00 48 1017.0
20260505171017 78 158 0.9 6.1 0.00 0.00 0.00 51 1017.1
20260505170517 78 203 0.9 1.7 0.00 0.00 0.00 47 1017.0
20260505170017 78 90 0.9 2.6 0.00 0.00 0.00 51 1017.0
20260505165517 78 113 0.9 2.6 0.00 0.00 0.00 54 1017.0
20260505165017 78 90 0.9 4.3 0.00 0.00 0.00 54 1017.1
20260505164537 77 180 0.9 4.3 0.00 0.00 0.00 53 1017.0
20260505164037 77 225 0.9 2.6 0.00 0.00 0.00 52 1017.2
20260505163517 77 203 0.9 2.6 0.00 0.00 0.00 50 1017.3
20260505163017 77 225 0.9 2.6 0.00 0.00 0.00 50 1017.4
20260505162517 77 113 0.9 3.5 0.00 0.00 0.00 51 1017.5
20260505162017 77 90 0.9 2.6 0.00 0.00 0.00 54 1017.6
20260505161517 77 90 0.0 0.9 0.00 0.00 0.00 52 1017.7
20260505161017 76 180 0.0 1.7 0.00 0.00 0.00 52 1017.8
20260505160518 77 68 0.0 0.9 0.00 0.00 0.00 50 1017.8
20260505153017 76 315 0.9 2.6 0.00 0.00 0.00 51 1017.9
20260505152519 76 90 0.9 1.7 0.00 0.00 0.00 52 1018.0
20260505152037 76 90 0.9 3.5 0.00 0.00 0.00 52 1018.0
20260505151517 75 23 0.9 3.5 0.00 0.00 0.00 53 1017.9
20260505151017 75 315 0.0 1.7 0.00 0.00 0.00 53 1017.8
20260505150537 75 45 0.0 1.7 0.00 0.00 0.00 56 1017.9
20260505140516 70 113 0.0 1.7 0.00 0.00 0.00 67 1017.6